Crossville, TN

3:05 AM CST on February 12, 2016 (GMT -0600)
Crossville Memorial-Whitson

Weather History for KCSV - March, 2013

Change the Weather History Date:

Sunday, March 10, 2013

  Actual Average Record
Temperature  
Mean Temperature 58 °F 45 °F  
Max Temperature 65 °F 55 °F 74 °F (2000)
Min Temperature 51 °F 36 °F 13 °F (1996)
Degree Days  
Heating Degree Days 7    
Month to date heating degree days 284  
Since 1 July heating degree days 3421  
Cooling Degree Days 0    
Month to date cooling degree days 0  
Year to date cooling degree days 0  
Growing Degree Days 8 (Base 50)    
Moisture  
Dew Point 29 °F    
Average Humidity 33    
Maximum Humidity 41    
Minimum Humidity 24    
Precipitation  
Precipitation 0.00 in 0.15 in 0.78 in (2015)
Month to date precipitation 1.36 1.52  
Year to date precipitation 10.91 10.74  
Sea Level Pressure  
Sea Level Pressure 30.01 in    
Wind  
Wind Speed 11 mph (South)    
Max Wind Speed 20 mph    
Max Gust Speed 35 mph    
Visibility 10 miles    
Events      
T = Trace of Precipitation, MM = Missing Value Source: NWS Daily Summary

Daily Weather History Graph

Daily Weather History Graph

Search for Another Location

Airport or City:

Trip Planner

Search our weather history database for the weather conditions in past years. The results will help you decide how hot, cold, wet, or windy it might be!

Date:

Astronomy

Mar. 10, 2013 Rise Set
Actual Time 6:57 AM CDT 6:43 PM CDT
Civil Twilight 6:32 AM CDT 7:09 PM CDT
Nautical Twilight 6:02 AM CDT 7:38 PM CDT
Astronomical Twilight 5:32 AM CDT 8:08 PM CDT
Moon 5:56 AM CDT (3/10) 5:51 PM CDT (3/10)
Length of Visible Light 12h 36m
Length of Day
11h 45m
Waning Crescent, 2% of the Moon is Illuminated
Mar 10
Waning Crescent
Mar 11
New
Mar 19
First Quarter
Mar 27
Full
Apr 2
Last Quarter

Hourly Weather History & Observations

Time (CDT) Temp. Dew Point Humidity Pressure Visibility Wind Dir Wind Speed Gust Speed Precip Events Conditions
12:53 AM 53.1 °F 28.0 °F 38% 30.09 in 10.0 mi Variable 6.9 mph - N/A   Clear
1:53 AM 52.0 °F 28.0 °F 40% 30.08 in 10.0 mi South 8.1 mph - N/A   Clear
3:53 AM 52.0 °F 28.0 °F 40% 30.08 in 10.0 mi South 8.1 mph 19.6 mph N/A   Clear
4:53 AM 51.1 °F 28.0 °F 41% 30.08 in 10.0 mi South 6.9 mph - N/A   Clear
5:53 AM 53.1 °F 27.0 °F 37% 30.09 in 10.0 mi South 6.9 mph - N/A   Mostly Cloudy
7:53 AM 53.1 °F 26.1 °F 35% 30.10 in 10.0 mi South 10.4 mph 17.3 mph N/A   Partly Cloudy
8:53 AM 55.0 °F 26.1 °F 33% 30.10 in 10.0 mi South 11.5 mph 18.4 mph N/A   Clear
9:53 AM 57.9 °F 26.1 °F 30% 30.09 in 10.0 mi South 10.4 mph 25.3 mph N/A   Clear
10:53 AM 60.1 °F 26.1 °F 27% 30.06 in 10.0 mi South 13.8 mph 23.0 mph N/A   Clear
11:53 AM 61.0 °F 27.0 °F 27% 30.08 in 10.0 mi South 9.2 mph 25.3 mph N/A   Clear
12:53 PM 61.0 °F 28.0 °F 29% 30.06 in 10.0 mi South 16.1 mph 21.9 mph N/A   Clear
1:53 PM 63.0 °F 26.1 °F 25% 30.02 in 10.0 mi South 16.1 mph 25.3 mph N/A   Clear
2:53 PM 64.0 °F 26.1 °F 24% 30.01 in 10.0 mi South 16.1 mph 25.3 mph N/A   Clear
3:53 PM 64.0 °F 26.1 °F 24% 30.00 in 10.0 mi SSE 15.0 mph 29.9 mph N/A   Clear
4:53 PM 63.0 °F 28.0 °F 27% 29.98 in 10.0 mi South 10.4 mph 25.3 mph N/A   Clear
5:53 PM 62.1 °F 28.0 °F 28% 29.95 in 10.0 mi South 12.7 mph 26.5 mph N/A   Clear
6:53 PM 61.0 °F 28.0 °F 29% 29.94 in 10.0 mi South 13.8 mph 25.3 mph N/A   Clear
7:53 PM 60.1 °F 28.9 °F 31% 29.93 in 10.0 mi SSE 12.7 mph 28.8 mph N/A   Clear
8:53 PM 59.0 °F 30.0 °F 33% 29.93 in 10.0 mi SSE 11.5 mph 23.0 mph N/A   Clear
9:53 PM 57.9 °F 33.1 °F 39% 29.94 in 10.0 mi South 12.7 mph 26.5 mph N/A   Clear
10:53 PM 59.0 °F 36.0 °F 42% 29.93 in 10.0 mi South 17.3 mph 29.9 mph N/A   Clear
11:53 PM 59.0 °F 39.0 °F 48% 29.91 in 10.0 mi South 15.0 mph 34.5 mph N/A   Scattered Clouds
12:53 AM 59.0 °F 41.0 °F 51% 29.88 in 10.0 mi SSE 13.8 mph 36.8 mph N/A   Clear